Regional Weather Roundup
Issued by NWS Goodland, KS

Home | Current Version | Previous Version | Text Only | Print | Product List | Glossary Off
Versions: 1 2 3 4 5 6 7 8 9 10 11 12 13 14 15 16 17 18 19 20 21 22 23 24 25 26 27 28 29 30 31 32 33 34 35 36 37 38 39 40 41 42 43 44 45 46 47 48 49 50

041
ASUS43 KGLD 190259
RWRGLD

GOODLAND FORECAST AREA HOURLY WEATHER ROUNDUP
NATIONAL WEATHER SERVICE GOODLAND KS
900 PM MDT WED OCT 18 2017

...OFFICIAL OBSERVATIONS...

CITY           SKY/WX    TMP DP  RH WIND       PRES   REMARKS
GOODLAND KS    CLEAR     49  34  56 E9        30.12R
HILL CITY KS   CLEAR     59  38  45 N10       30.09R
IMPERIAL NEB   CLEAR     47  31  53 SE7       30.11S
MCCOOK NEB     CLEAR     52  35  52 E5        30.10F
AKRON CO       CLEAR     51  26  37 SE12      30.14R
BURLINGTON CO  CLEAR     52  30  43 E10       30.14R
LIMON CO       CLOUDY    46  22  38 SE3       30.18S
$$

...UNOFFICIAL OBSERVATIONS...

CITY           SKY/WX    TMP DP  RH WIND       PRES   REMARKS
LENORA KS        N/A     51  32  48 MISG        N/A
NORTON KS      CLEAR     48  32  53 N9        30.09R
SHARON SPRINGS   N/A     55  31  40 CALM        N/A
TRENTON NEB      N/A     51  32  48 SE5         N/A
YUMA CO        FAIR      45  30  57 SE6       30.12S
$$




USA.gov is the U.S. government's official web portal to all federal, state and local government web resources and services.